Location: Ditterswind
(50.1692°N, 10.6348°E)
Time: 00:08:52
(UTC+00:00)

Daily predictions for brighter satellites

Satellite Brightness Start Highest point End
(mag) Time Altitude Azimuth Time Altitude Azimuth Time Altitude Azimuth
STARLINK-1342 3.9 00:00:03 10° WNW 00:03:05 47° N 00:06:08 10° ENE
STARLINK-1364 3.9 00:00:23 10° WNW 00:03:26 47° N 00:06:28 10° ENE
STARLINK-1376 3.9 00:00:43 10° WNW 00:03:46 47° N 00:06:48 10° ENE
STARLINK-1360 3.9 00:01:04 10° WNW 00:04:07 47° N 00:07:09 10° ENE
STARLINK-1268 3.8 00:04:28 32° SE 00:04:28 32° SE 00:07:02 10° E
STARLINK-1361 3.9 00:01:25 10° WNW 00:04:27 47° N 00:07:29 10° ENE
STARLINK-1301 4.0 00:03:56 34° S 00:04:35 37° SE 00:08:10 10° ENE
STARLINK-1367 3.9 00:01:40 10° WNW 00:04:45 48° N 00:07:49 10° ENE
STARLINK-1366 3.9 00:02:04 10° WNW 00:05:07 47° N 00:08:09 10° ENE
Cosmos 1400 Rocket 3.6 00:02:21 10° N 00:06:25 50° ENE 00:09:10 19° SE
STARLINK-1303 4.0 00:05:53 34° SSE 00:06:27 36° SE 00:09:55 10° ENE
STARLINK-66 3.1 00:07:08 46° S 00:07:34 50° SSE 00:10:41 10° ENE
Cosmos 1570 Rocket 4.0 00:04:53 27° SSW 00:07:49 77° ESE 00:13:07 10° NNE
Cosmos 2227 Rocket 3.3 00:03:09 10° NW 00:07:56 28° WSW 00:10:10 22° SW
Cosmos 1709 Rocket 3.9 00:05:05 25° S 00:08:55 88° E 00:15:09 10° N
Cosmos 1763 Rocket 3.6 00:05:57 24° SW 00:08:59 69° WNW 00:14:04 10° NNE
STARLINK-1338 4.2 00:05:17 10° W 00:09:13 56° N 00:13:09 10° ENE
STARLINK-1316 3.6 00:09:23 36° SE 00:09:23 36° SE 00:12:15 10° ENE
STARLINK-1312 4.0 00:09:13 34° S 00:09:55 38° SE 00:13:26 10° ENE
STARLINK-1257 3.5 00:10:14 36° SSE 00:10:14 36° SSE 00:13:09 10° ENE
STARLINK-1256 3.5 00:11:11 37° SSE 00:11:12 37° SSE 00:14:07 10° ENE
STARLINK-58 4.0 00:11:42 28° SE 00:11:42 28° SE 00:14:20 10° E
STARLINK-1213 3.5 00:12:02 37° SSE 00:12:05 37° SSE 00:15:00 10° ENE
STARLINK-52 3.5 00:09:16 10° WNW 00:12:28 61° NNE 00:15:40 10° E
Cosmos 2084 Rocket 3.7 00:08:18 10° NW 00:12:40 53° SW 00:14:58 26° SSE
STARLINK-1263 3.4 00:12:53 38° SSE 00:12:57 38° SSE 00:15:54 10° ENE
STARLINK-1259 3.4 00:13:47 38° SSE 00:13:54 38° SSE 00:16:50 10° ENE
STARLINK-1265 3.4 00:14:10 38° SSE 00:14:18 39° SSE 00:17:17 10° ENE
STARLINK-1285 3.4 00:14:38 39° SSE 00:14:46 39° SSE 00:17:43 10° ENE
Cosmos 2298 Rocket 4.1 00:10:03 10° NNW 00:15:24 80° ENE 00:19:50 15° SSE
STARLINK-1296 3.3 00:16:22 39° SSE 00:16:34 40° SSE 00:19:32 10° ENE
SL-16 R/B 3.1 00:10:52 10° SE 00:16:51 56° ENE 00:22:53 10° N
STARLINK-1260 3.3 00:17:14 40° SSE 00:17:28 41° SSE 00:20:27 10° ENE
STARLINK-1371 4.2 00:13:40 10° W 00:17:35 55° N 00:21:29 10° ENE
Cosmos 1758 Rocket 3.5 00:15:28 29° SSW 00:17:40 81° W 00:22:09 10° N
STARLINK-1318 3.3 00:18:06 40° SSE 00:18:22 41° SSE 00:21:21 10° ENE
STARLINK-75 3.1 00:18:02 42° SSW 00:18:46 54° SSE 00:21:57 10° ENE
STARLINK-1275 3.3 00:18:59 40° SSE 00:19:17 42° SSE 00:22:16 10° ENE
STARLINK-1309 3.2 00:19:50 41° SSE 00:20:10 42° SSE 00:23:09 10° ENE
STARLINK-1282 3.2 00:20:42 41° S 00:21:03 43° SSE 00:24:02 10° ENE
STARLINK-1283 3.8 00:20:03 30° SSW 00:21:41 50° SSE 00:25:41 10° ENE
STARLINK-1341 4.2 00:18:03 10° W 00:21:58 55° N 00:25:54 10° E
IRAS Rocket 4.2 00:18:06 20° SSE 00:22:03 82° WSW 00:27:37 10° NNW
CZ-4 R/B 4.2 00:17:27 10° N 00:22:05 55° WNW 00:24:50 23° SW
STARLINK-1313 3.1 00:21:38 43° S 00:22:09 48° SSE 00:25:11 10° ENE
STARLINK-80 3.7 00:21:06 33° SSW 00:22:20 47° SSE 00:26:01 10° ENE
STARLINK-1279 3.1 00:22:33 43° S 00:23:05 49° SSE 00:26:07 10° ENE
STARLINK-1298 3.2 00:23:16 41° S 00:23:43 45° SSE 00:26:43 10° ENE
STARLINK-1293 3.2 00:24:09 41° S 00:24:38 46° SSE 00:27:40 10° ENE
STARLINK-1374 4.2 00:22:24 10° WNW 00:26:21 55° N 00:30:18 10° E
STARLINK-1255 3.2 00:25:54 41° S 00:26:27 47° SSE 00:29:29 10° ENE
SL-16 R/B 3.7 00:22:44 13° SSE 00:26:31 26° ESE 00:31:09 10° NE
Cosmos 2208 Rocket 4.0 00:23:37 25° SSW 00:26:50 90° ESE 00:32:15 10° NNE
STARLINK-22 3.1 00:26:16 40° SSW 00:27:02 51° SSE 00:30:10 10° ENE
STARLINK 1040 2.8 00:26:21 26° W 00:27:35 60° NNW 00:30:07 10° ENE
STARLINK-1297 3.6 00:26:32 34° SSW 00:27:37 47° SSE 00:31:07 10° ENE
Cosmos 2285 Rocket 4.3 00:21:52 10° NNW 00:27:59 50° WSW 00:31:55 22° S
STARLINK-1444 3.7 00:25:48 10° WNW 00:26:52 24° WNW 00:26:52 24° WNW
STARLINK-1452 4.0 00:26:26 10° WNW 00:27:17 20° WNW 00:27:17 20° WNW
STARLINK-1311 2.8 00:28:27 45° SSW 00:29:00 55° SSE 00:31:54 10° ENE
STARLINK-1453 4.4 00:27:46 10° WNW 00:28:18 15° WNW 00:28:18 15° WNW
STARLINK-1398 4.2 00:27:47 10° WNW 00:28:28 17° WNW 00:28:28 17° WNW
STARLINK-1420 4.5 00:27:49 10° WNW 00:28:17 15° WNW 00:28:17 15° WNW
STARLINK-1460 4.5 00:27:52 10° WNW 00:28:21 15° WNW 00:28:21 15° WNW
STARLINK-1440 4.4 00:27:52 10° WNW 00:28:21 15° WNW 00:28:21 15° WNW
STARLINK-1436 (VISORSAT) 4.2 00:27:52 10° WNW 00:28:34 18° WNW 00:28:34 18° WNW
STARLINK-1400 4.5 00:27:57 10° WNW 00:28:24 14° WNW 00:28:24 14° WNW
STARLINK-1454 4.5 00:27:58 10° WNW 00:28:26 14° WNW 00:28:26 14° WNW
STARLINK-1445 4.4 00:28:03 10° WNW 00:28:35 15° WNW 00:28:35 15° WNW
STARLINK-1407 4.4 00:28:05 10° WNW 00:28:35 15° WNW 00:28:35 15° WNW
STARLINK-1446 4.4 00:28:06 10° WNW 00:28:37 15° WNW 00:28:37 15° WNW
STARLINK-1370 4.4 00:28:08 10° WNW 00:28:37 15° WNW 00:28:37 15° WNW
STARLINK-1447 4.4 00:28:11 10° WNW 00:28:41 15° WNW 00:28:41 15° WNW
STARLINK-1455 4.4 00:28:11 10° WNW 00:28:41 15° WNW 00:28:41 15° WNW
STARLINK-1441 4.4 00:28:13 10° WNW 00:28:44 15° WNW 00:28:44 15° WNW
STARLINK-1443 4.3 00:28:16 10° WNW 00:28:52 16° WNW 00:28:52 16° WNW
STARLINK-1351 4.4 00:28:18 10° WNW 00:28:49 15° WNW 00:28:49 15° WNW
STARLINK-1418 4.4 00:28:18 10° WNW 00:28:48 15° WNW 00:28:48 15° WNW
STARLINK-1403 4.4 00:28:18 10° WNW 00:28:52 16° WNW 00:28:52 16° WNW
STARLINK-1434 4.3 00:28:19 10° WNW 00:28:54 16° WNW 00:28:54 16° WNW
STARLINK-1442 4.4 00:28:19 10° WNW 00:28:50 15° WNW 00:28:50 15° WNW
STARLINK-1448 4.4 00:28:21 10° WNW 00:28:51 15° WNW 00:28:51 15° WNW
STARLINK-1433 4.4 00:28:22 10° WNW 00:28:51 15° WNW 00:28:51 15° WNW
STARLINK-1449 4.4 00:28:24 10° WNW 00:28:57 16° WNW 00:28:57 16° WNW
STARLINK-1339 4.2 00:26:41 10° WNW 00:30:36 56° N 00:34:31 10° E
STARLINK-1411 4.5 00:28:35 10° WNW 00:29:01 14° WNW 00:29:01 14° WNW
STARLINK-1412 4.4 00:28:35 10° WNW 00:29:05 15° WNW 00:29:05 15° WNW
CZ-2D R/B 3.0 00:26:18 10° NNE 00:31:11 39° E 00:35:02 15° SSE
Cosmos-2242 3.3 00:28:09 10° NNW 00:32:19 53° W 00:34:23 27° SSW
Meteor 2-10 Rocket 4.2 00:27:59 10° NNW 00:32:42 38° W 00:35:15 23° SW
MOZ.5/SAFIR/RUBIN 5/SL-8 3.9 00:29:16 17° SSE 00:32:48 76° ENE 00:37:29 10° NNW
USA 81 4.3 00:30:17 24° SSW 00:33:26 59° W 00:38:41 10° N
USA 215 3.6 00:28:06 10° SSE 00:34:11 43° SW 00:40:24 10° WNW
STARLINK-1377 4.2 00:31:06 10° WNW 00:35:03 56° N 00:39:00 10° E
Cosmos 2221 3.7 00:30:59 10° N 00:35:07 40° ENE 00:39:15 10° SE
Cosmos 1953 Rocket 3.5 00:33:32 26° S 00:36:03 88° E 00:40:27 10° N
BREEZE-M R/B 2.8 00:31:50 10° W 00:37:39 85° S 00:40:46 10° E
STARLINK-42 2.7 00:36:26 31° SW 00:37:45 75° SSE 00:40:52 10° ENE
STARLINK-1353 4.2 00:35:26 10° WNW 00:39:24 56° N 00:43:21 10° E
STARLINK-1029 3.6 00:39:04 32° S 00:39:39 36° SSE 00:42:36 10° ENE
GP-B 3.2 00:35:34 10° N 00:40:02 75° E 00:42:59 21° S
STARLINK-60 2.8 00:37:20 10° WNW 00:40:29 60° SSW 00:43:37 10° SE
STARLINK-34 3.2 00:40:02 37° S 00:40:44 45° SSE 00:43:42 10° ENE
FALCON 9 DEB 3.5 00:37:27 10° WNW 00:40:52 65° NNE 00:44:19 10° E
STARLINK-41 2.7 00:40:11 31° SW 00:41:28 76° SSE 00:44:32 10° ENE
Cosmos 1315 Rocket 3.8 00:38:11 10° N 00:41:58 44° ENE 00:45:45 10° SSE
CZ-4C R/B 3.7 00:38:34 17° SSE 00:42:00 79° ENE 00:46:27 10° NNW
Cosmos 1842 Rocket 4.1 00:37:42 10° N 00:42:08 57° ENE 00:46:05 12° SSE
STARLINK-1272 3.2 00:42:02 28° SW 00:43:40 60° SSE 00:47:09 10° ENE
STARLINK-1375 4.2 00:39:48 10° WNW 00:43:46 57° N 00:47:45 10° E
Cosmos 540 Rocket 3.6 00:41:07 22° SW 00:44:29 68° WNW 00:49:36 10° NNE
STARLINK-62 3.1 00:43:45 36° SSW 00:44:35 48° SSE 00:47:33 10° ENE
Helios 1B rocket 3.7 00:44:10 10° N 00:47:50 31° WNW 00:50:24 17° WSW
STARLINK-1350 4.2 00:44:09 10° WNW 00:48:07 58° N 00:52:06 10° E
STARLINK-1307 3.3 00:46:48 25° SW 00:48:49 64° SSE 00:52:30 10° ENE
Cosmos 2360 Rocket 4.2 00:45:19 10° SE 00:48:58 18° E 00:52:38 10° ENE
STARLINK-1290 3.3 00:50:11 23° SW 00:52:19 67° SSE 00:56:02 10° ENE
STARLINK-1352 4.2 00:48:25 10° WNW 00:52:22 58° N 00:56:21 10° E
Cosmos 1980 Rocket 2.3 00:51:50 19° SW 00:55:56 70° WNW 01:01:37 10° NNE
Cosmos 2074 Rocket 4.1 00:51:22 18° S 00:56:17 82° E 01:02:35 10° N
Meteor 1-29 4.3 00:53:31 10° N 00:56:29 29° WNW 00:58:11 18° WSW
STARLINK-1368 4.1 00:53:00 10° WNW 00:57:00 59° N 01:00:59 10° E
Cosmos 1455 4.0 00:56:13 10° NW 00:58:46 18° W 01:00:05 15° WSW
STARLINK-1317 3.4 00:56:34 19° WSW 00:59:17 76° SSE 01:03:12 10° ENE
CZ-4B R/B 4.2 00:55:00 10° NNE 01:00:06 50° E 01:04:34 14° S
STARLINK-1369 4.1 00:57:26 10° WNW 01:01:26 60° N 01:05:26 10° E
STARLINK-55 3.1 01:00:33 15° WSW 01:03:09 75° NNW 01:06:21 10° ENE
STARLINK-1274 3.1 01:00:56 20° WSW 01:03:18 78° SSE 01:06:51 10° ENE
STARLINK-43 3.8 01:00:55 10° W 01:04:34 61° N 01:08:14 10° ENE
STARLINK-1372 4.1 01:01:41 10° WNW 01:05:41 61° N 01:09:39 10° E
STARLINK-1291 3.2 01:04:15 17° WSW 01:07:00 81° SSE 01:10:45 10° ENE
Meteor 1-11 4.3 01:03:54 19° SSW 01:07:59 68° WNW 01:13:35 10° N
ADEOS II 3.4 01:04:25 10° NNE 01:09:14 35° E 01:13:59 10° SSE
STARLINK-1264 3.3 01:07:26 16° WSW 01:10:19 84° SSE 01:14:04 10° ENE
STARLINK-1378 4.0 01:06:19 10° WNW 01:10:19 63° N 01:14:20 10° E
Cosmos 2263 Rocket 2.3 01:04:54 10° NW 01:10:24 58° WSW 01:15:50 10° S
IRS-1D 4.4 01:07:30 10° NNE 01:12:35 45° E 01:17:30 10° S
STARLINK-29 2.8 01:10:06 10° WNW 01:13:16 62° SSW 01:16:26 10° SE
STARLINK-1295 4.5 01:11:26 20° SSW 01:13:40 35° SE 01:17:28 10° ENE
STARLINK-1267 3.3 01:10:39 15° WSW 01:13:41 87° SSE 01:17:26 10° ENE
NOSS 2-1 (C) 3.5 01:12:05 21° S 01:14:01 47° SE 01:17:32 10° NE
AQUA 4.1 01:09:36 10° NNE 01:14:22 63° ESE 01:18:24 14° S
STARLINK-28 3.3 01:11:34 10° W 01:14:42 65° NNW 01:17:54 10° ENE
SL-4 R/B 2.6 01:10:10 10° WNW 01:14:48 46° SSW 01:19:16 10° SE
STARLINK-1379 4.0 01:10:49 10° WNW 01:14:49 64° N 01:18:51 10° E
UNK 3.8 01:11:40 16° S 01:15:17 59° W 01:19:50 10° NNW
USA 229 DEB 3.9 01:09:06 10° NW 01:16:15 62° SW 01:23:43 10° SSE
STARLINK-64 3.5 01:14:12 21° SW 01:16:16 50° SSE 01:19:46 10° ENE
USA 229 3.9 01:09:13 10° NW 01:16:21 62° SW 01:23:49 10° SSE
NOSS 3-1 (C) 4.1 01:09:47 10° NW 01:17:06 59° SW 01:25:29 10° SSE
NPP 3.7 01:12:52 10° NNE 01:18:19 82° ESE 01:22:54 15° SSW
STARLINK-1287 4.4 01:16:12 19° SSW 01:18:38 37° SE 01:22:28 10° ENE
STARLINK-1329 4.0 01:14:36 10° WNW 01:18:39 66° NNE 01:22:40 10° E
NOSS 2-1 (D) 3.3 01:16:50 21° SSW 01:18:53 53° SE 01:22:29 10° NE
ARIANE 5 R/B 4.3 01:14:44 10° NE 01:18:53 25° E 01:23:01 10° SSE
STARLINK-1207 3.3 01:17:09 13° WSW 01:20:27 88° NNW 01:24:13 10° ENE
Cosmos 2184 Rocket 4.0 01:16:26 16° SSW 01:21:27 71° WNW 01:27:38 10° N
STARLINK-1362 3.9 01:19:09 10° WNW 01:23:11 67° NNE 01:27:13 10° E
CZ-4C R/B 3.6 01:18:15 10° W 01:23:19 38° NNW 01:29:22 10° NE
STARLINK-1266 3.3 01:20:25 12° WSW 01:23:51 85° NNW 01:27:37 10° ENE
BREEZE-M DEB (TANK) 2.0 01:23:14 26° SW 01:24:05 46° SSE 01:27:00 10° E
STARLINK-33 3.3 01:21:49 10° W 01:24:54 62° NNW 01:28:00 10° ENE
Cosmos 1892 3.3 01:21:53 12° S 01:25:13 53° E 01:28:55 10° NNE
NOSS 3-1 (A) 4.0 01:17:56 10° NW 01:25:20 73° SW 01:33:53 10° SSE
STARLINK-1299 4.1 01:24:05 18° SW 01:27:02 48° SSE 01:31:09 10° ENE
STARLINK-1284 3.4 01:23:40 11° WSW 01:27:15 82° NNW 01:31:02 10° ENE
STARLINK-1373 3.9 01:23:41 10° WNW 01:27:42 69° NNE 01:31:44 10° E
STARLINK-1320 3.0 01:24:48 10° WNW 01:27:55 76° NNE 01:31:03 10° ESE
STARLINK-1322 3.0 01:25:09 10° WNW 01:28:17 76° NNE 01:31:24 10° ESE
STARLINK-26 3.5 01:24:58 10° W 01:28:23 63° NNW 01:31:48 10° ENE
BREEZE-M DEB (TANK) 0.9 01:26:04 10° W 01:28:27 73° S 01:31:05 10° ESE
STARLINK-1302 4.2 01:25:46 18° SSW 01:28:32 43° SE 01:32:28 10° ENE
STARLINK-1324 3.0 01:25:28 10° WNW 01:28:36 76° NNE 01:31:43 10° ESE
STARLINK-1294 3.0 01:25:46 10° WNW 01:28:55 76° NNE 01:32:04 10° ESE
STARLINK-1261 3.0 01:26:10 10° WNW 01:29:17 77° NNE 01:32:24 10° ESE
STARLINK-1325 3.0 01:26:31 10° WNW 01:29:38 77° NNE 01:32:46 10° ESE
Cosmos 1869 3.3 01:25:51 10° NNW 01:29:41 63° W 01:33:01 13° S
Cosmos 1610 Rocket 4.5 01:24:10 13° S 01:29:43 87° W 01:35:59 10° N
STARLINK-1333 3.0 01:26:52 10° WNW 01:30:00 77° NNE 01:33:08 10° ESE
STARLINK-1334 3.0 01:27:10 10° WNW 01:30:18 77° NNE 01:33:25 10° ESE
STARLINK-1326 3.0 01:27:29 10° WNW 01:30:37 78° NNE 01:33:45 10° ESE
STARLINK-1258 3.4 01:26:59 10° WSW 01:30:42 80° NNW 01:34:28 10° ENE
STARLINK-1323 3.0 01:27:52 10° WNW 01:31:00 78° NNE 01:34:07 10° ESE
STARLINK-1349 3.0 01:28:10 10° WNW 01:31:18 78° NNE 01:34:25 10° ESE
STARLINK-1336 3.0 01:28:29 10° WNW 01:31:37 79° NNE 01:34:45 10° ESE
STARLINK-1331 3.0 01:28:52 10° WNW 01:32:00 79° NNE 01:35:08 10° ESE
STARLINK-1344 3.0 01:29:11 10° WNW 01:32:18 79° NNE 01:35:26 10° ESE
STARLINK-1390 3.8 01:28:16 10° WNW 01:32:19 71° NNE 01:36:23 10° E
STARLINK-1343 3.0 01:29:33 10° WNW 01:32:41 79° NNE 01:35:48 10° ESE
STARLINK-1346 3.0 01:29:49 10° WNW 01:33:00 80° NNE 01:36:09 10° ESE
STARLINK-1328 2.9 01:30:16 10° WNW 01:33:24 80° NNE 01:36:32 10° ESE
STARLINK-1273 4.1 01:30:32 17° SW 01:33:29 46° SSE 01:37:27 10° ENE
STARLINK-1354 2.9 01:30:34 10° WNW 01:33:41 80° NNE 01:36:49 10° ESE
STARLINK-1347 2.9 01:30:51 10° WNW 01:33:59 81° NNE 01:37:06 10° ESE
STARLINK-1292 3.5 01:30:23 10° WSW 01:34:08 78° NNW 01:37:54 10° ENE
STARLINK-1357 2.9 01:31:16 10° WNW 01:34:25 81° NNE 01:37:32 10° ESE
Cosmos 2322 Rocket 2.4 01:29:42 14° SSW 01:34:34 68° ESE 01:40:10 10° NNE
STARLINK-1335 2.9 01:31:34 10° WNW 01:34:42 81° NNE 01:37:49 10° ESE
STARLINK-1327 2.9 01:31:55 10° WNW 01:35:03 82° NNE 01:38:11 10° ESE
STARLINK-1340 2.9 01:32:13 10° WNW 01:35:21 82° NNE 01:38:29 10° ESE
STARLINK-1356 2.9 01:32:36 10° WNW 01:35:44 82° NNE 01:38:52 10° ESE
STARLINK-1345 2.9 01:32:54 10° WNW 01:36:02 82° NNE 01:39:09 10° ESE
STARLINK-1355 2.9 01:33:15 10° WNW 01:36:24 83° NNE 01:39:32 10° ESE
In-Cosmos 22 Rocket 4.3 01:31:02 11° S 01:36:24 78° E 01:41:52 10° NNE
STARLINK-1321 2.9 01:33:36 10° WNW 01:36:44 83° NNE 01:39:52 10° ESE
STARLINK-1358 2.9 01:34:00 10° WNW 01:37:07 83° NNE 01:40:15 10° ESE
STARLINK-1332 2.9 01:34:17 10° WNW 01:37:25 84° NNE 01:40:33 10° ESE
STARLINK-1348 2.9 01:34:38 10° WNW 01:37:45 84° NNE 01:40:53 10° ESE
STARLINK-1330 2.9 01:34:57 10° WNW 01:38:05 84° NNE 01:41:12 10° ESE
STARLINK-1365 3.8 01:34:14 10° WNW 01:38:19 75° NNE 01:42:25 10° ESE
STARLINK-1363 2.9 01:35:17 10° WNW 01:38:25 85° NNE 01:41:33 10° ESE
STARLINK-1288 4.0 01:35:19 16° SW 01:38:26 49° SSE 01:42:26 10° ENE
STARLINK-61 4.2 01:35:51 16° SSW 01:38:34 38° SE 01:42:14 10° ENE
STARLINK-1337 2.9 01:35:39 10° WNW 01:38:47 85° NNE 01:41:55 10° ESE
STARLINK-1342 2.9 01:35:58 10° WNW 01:39:07 85° NNE 01:42:14 10° ESE
STARLINK-1364 2.9 01:36:18 10° WNW 01:39:27 85° NNE 01:42:34 10° ESE
STARLINK-1376 2.9 01:36:39 10° WNW 01:39:47 86° NNE 01:42:54 10° ESE
STARLINK-1268 3.2 01:36:44 10° W 01:39:48 65° NNW 01:42:53 10° ENE
STARLINK-1360 2.9 01:36:59 10° WNW 01:40:08 86° NNE 01:43:16 10° ESE
Resurs 1-4 Rocket 2.4 01:34:59 10° N 01:40:13 60° WNW 01:44:54 13° SSW
STARLINK-1361 2.8 01:37:20 10° WNW 01:40:28 86° NNE 01:43:36 10° ESE
STARLINK-1367 2.9 01:37:36 10° WNW 01:40:46 87° NNE 01:43:56 10° ESE
STARLINK-1289 3.5 01:37:15 10° WSW 01:41:00 74° NNW 01:44:46 10° ENE
STARLINK-1366 2.8 01:37:59 10° WNW 01:41:07 87° NNE 01:44:14 10° ESE
Cosmos 1697 Rocket 4.4 01:37:57 10° W 01:42:34 25° NW 01:47:12 10° NNE
STARLINK-1301 3.6 01:39:08 10° W 01:42:59 72° NNW 01:46:51 10° ENE
STARLINK-1308 3.9 01:40:08 15° SW 01:43:27 53° SSE 01:47:29 10° ENE
STARLINK-66 3.6 01:40:31 10° W 01:43:41 55° N 01:46:52 10° ENE
Cosmos 1076 Rocket 3.6 01:39:51 11° S 01:43:59 86° ESE 01:48:24 10° N
Cosmos 1125 Rocket 4.2 01:39:32 10° NW 01:44:14 35° WSW 01:48:54 10° SSW
STARLINK-1303 3.6 01:40:44 10° W 01:44:29 72° NNW 01:48:15 10° ENE
STARLINK-1316 3.3 01:41:58 10° W 01:45:04 62° NNW 01:48:11 10° ENE
Cosmos 2151 4.2 01:41:49 10° SSE 01:45:48 40° E 01:49:51 10° NNE
STARLINK-1257 3.3 01:42:51 10° W 01:45:58 62° NNW 01:49:05 10° ENE
STARLINK-1256 3.3 01:43:50 10° W 01:46:56 61° NNW 01:50:02 10° ENE
STARLINK-58 3.1 01:44:11 10° WSW 01:47:22 72° NNW 01:50:33 10° ENE
STARLINK-1213 3.3 01:44:43 10° W 01:47:49 61° NNW 01:50:55 10° ENE
H-2A R/B 3.6 01:43:42 10° SE 01:47:52 41° ENE 01:52:06 10° N
STARLINK-1312 3.6 01:44:13 10° W 01:47:59 70° NNW 01:51:46 10° ENE
STARLINK-1338 3.6 01:44:28 10° WNW 01:48:28 81° NNE 01:52:27 10° ESE
STARLINK-52 3.4 01:45:30 10° WNW 01:48:32 39° SSW 01:51:33 10° SE
STARLINK-1263 3.3 01:45:37 10° W 01:48:42 60° NNW 01:51:49 10° ENE
STARLINK-1259 3.4 01:46:34 10° W 01:49:39 60° NNW 01:52:45 10° ENE
STARLINK-1265 3.4 01:46:56 10° W 01:50:03 60° NNW 01:53:11 10° ENE
STARLINK-1285 3.4 01:47:26 10° W 01:50:32 60° NNW 01:53:38 10° ENE
STARLINK-1296 3.4 01:49:15 10° W 01:52:21 59° NNW 01:55:27 10° ENE
STARLINK-1260 3.4 01:50:09 10° W 01:53:14 58° NNW 01:56:21 10° ENE
STARLINK-1304 3.8 01:49:41 13° SW 01:53:21 59° SSE 01:57:26 10° ENE
Cosmos 1408 2.8 01:49:46 10° S 01:53:25 68° E 01:57:05 10° NNE
STARLINK-1318 3.4 01:51:03 10° W 01:54:09 58° NNW 01:57:15 10° ENE
STARLINK-75 3.7 01:51:45 10° W 01:54:57 54° N 01:58:08 10° ENE
STARLINK-1275 3.4 01:51:58 10° W 01:55:04 58° NNW 01:58:10 10° ENE
Cosmos 2154 Rocket 4.2 01:49:51 11° SSW 01:55:49 61° WNW 02:02:00 10° N
STARLINK-1309 3.4 01:52:52 10° W 01:55:57 57° NNW 01:59:02 10° ENE
STARLINK-1371 3.5 01:52:44 10° WNW 01:56:42 86° NNE 02:00:40 10° ESE
STARLINK-1282 3.5 01:53:45 10° W 01:56:50 57° NNW 01:59:56 10° ENE
GEOS 3 Rocket 3.9 01:52:14 10° SSE 01:57:11 45° SW 02:02:16 10° NW
STARLINK-1313 3.6 01:54:53 10° W 01:57:58 54° N 02:01:03 10° ENE
STARLINK-48 3.5 01:54:06 10° WSW 01:58:00 87° NNW 02:01:55 10° ENE
STARLINK-1279 3.6 01:55:50 10° W 01:58:55 54° N 02:01:59 10° ENE
STARLINK-1278 3.7 01:55:21 11° WSW 01:59:30 71° SSE 02:03:45 10° ENE
STARLINK-1298 3.5 01:56:26 10° W 01:59:31 56° N 02:02:36 10° ENE
Cosmos 1825 2.8 01:56:21 10° S 02:00:01 54° E 02:03:43 10° NNE
STARLINK-1293 3.5 01:57:22 10° W 02:00:27 56° N 02:03:32 10° ENE
STARLINK-80 3.8 01:56:47 10° W 02:00:34 63° NNW 02:04:21 10° ENE
SL-16 R/B 3.4 01:55:28 10° SSW 02:00:46 31° W 02:06:12 10° NNW
STARLINK-1341 3.5 01:57:07 10° WNW 02:01:07 89° NNE 02:05:05 10° ESE
STARLINK-1283 4.0 01:57:05 10° W 02:01:12 65° NNW 02:05:19 10° ENE
STARLINK-1280 3.7 01:57:08 10° WSW 02:01:21 72° SSE 02:05:36 10° ENE
STARLINK 1040 3.7 01:59:17 10° WNW 02:01:44 41° N 02:04:12 10° ENE
STARLINK-1255 3.5 01:59:11 10° W 02:02:16 55° N 02:05:21 10° ENE
SL-08 R/B 3.2 01:57:43 10° SSE 02:02:20 81° WSW 02:06:59 10° NNW
STARLINK-22 3.6 02:00:00 10° W 02:03:10 55° N 02:06:20 10° ENE
IRS-P3 4.2 01:58:22 10° NNE 02:03:44 84° ESE 02:09:04 10° SSW
STARLINK-1311 3.6 02:01:25 10° W 02:04:18 50° N 02:07:13 10° ENE
Cosmos 1844 Rocket 2.7 01:59:22 10° NNW 02:05:01 89° WSW 02:10:36 10° SSE
STARLINK-1297 3.7 02:01:39 10° W 02:05:14 62° NNW 02:08:50 10° ENE
STARLINK-1374 3.5 02:01:35 10° WNW 02:05:36 88° SSW 02:09:37 10° ESE
NOSS 2-1 (E) 3.3 02:04:58 10° SW 02:08:20 61° NW 02:12:11 10° NE
STARLINK-1339 3.5 02:05:45 10° WNW 02:09:44 84° SSW 02:13:42 10° ESE
STARLINK-1286 3.7 02:05:49 10° WSW 02:09:59 74° SSE 02:14:09 10° ENE
SL-16 R/B 2.5 02:04:37 10° SW 02:10:14 61° WNW 02:15:54 10° NNE
CZ-2D R/B 3.0 02:06:29 10° N 02:11:13 36° WNW 02:15:54 10° SW
Cosmos 2221 3.9 02:08:58 10° NW 02:12:28 24° W 02:15:57 10° SW
STARLINK-1281 3.6 02:09:05 10° WSW 02:13:13 74° SSE 02:17:22 10° ENE
STARLINK-40 4.5 02:10:25 10° SSW 02:13:38 30° SE 02:16:51 10° E
STARLINK-42 3.8 02:10:36 10° W 02:13:39 48° N 02:16:42 10° ENE
STARLINK-1377 3.5 02:10:17 10° WNW 02:14:17 81° SSW 02:18:18 10° ESE
COSMOS 2428 4.4 02:10:17 10° SSE 02:14:59 27° ESE 02:19:42 10° NE
STARLINK-44 4.5 02:11:58 10° SSW 02:15:12 31° SE 02:18:27 10° E
STARLINK-1029 3.3 02:12:21 10° W 02:15:30 63° NNW 02:18:40 10° ENE
CZ-4C R/B 3.9 02:12:16 10° SSE 02:15:49 56° ENE 02:19:23 10° N
STARLINK-34 3.5 02:13:19 10° W 02:16:22 55° N 02:19:24 10° ENE
STARLINK-37 4.3 02:13:43 10° SSW 02:17:00 33° SE 02:20:19 10° ENE
Cosmos 773 Rocket 4.3 02:11:54 10° SSW 02:17:08 71° ESE 02:22:26 10° NNE
STARLINK-41 3.8 02:14:13 10° W 02:17:11 47° N 02:20:10 10° ENE
FALCON 9 DEB 3.6 02:14:35 10° WNW 02:17:50 38° SSW 02:21:04 10° SE
STARLINK-1310 3.6 02:14:03 10° WSW 02:18:12 79° SSE 02:22:21 10° ENE
Cosmos 1315 Rocket 4.5 02:15:31 10° NW 02:18:13 18° W 02:20:55 10° SW
STARLINK-36 4.4 02:15:10 10° SSW 02:18:26 32° SE 02:21:43 10° E
STARLINK-1353 3.5 02:14:37 10° WNW 02:18:38 77° SSW 02:22:39 10° ESE
ATLAS 5 CENTAUR R/B 4.2 02:17:11 10° NNW 02:18:54 16° NNE 02:21:31 10° ENE
STARLINK-62 3.5 02:17:11 10° W 02:20:11 54° N 02:23:11 10° ENE
CBERS-1 4.4 02:15:59 10° N 02:20:59 52° WNW 02:25:56 10° SW
STARLINK-1272 3.9 02:17:31 10° W 02:21:00 56° N 02:24:30 10° ENE
STARLINK-63 4.2 02:18:27 10° SSW 02:21:47 35° SE 02:25:07 10° ENE
STARLINK-1375 3.5 02:19:00 10° WNW 02:23:01 74° SSW 02:27:01 10° ESE
STARLINK-35 4.3 02:19:52 10° SSW 02:23:08 34° SE 02:26:25 10° ENE
STARLINK-1319 3.6 02:19:00 10° WSW 02:23:09 82° SSE 02:27:19 10° ENE
STARLINK-51 4.2 02:21:36 10° SSW 02:24:56 36° SE 02:28:17 10° ENE
Cosmos 2366 rocket 4.2 02:19:58 10° S 02:26:15 83° E 02:32:36 10° N
Cosmos 2278 Rocket 4.0 02:21:30 10° NNW 02:26:50 38° NE 02:32:06 10° ESE
